Location: Pouilly
(47.2624°N, 4.5558°E)
Time: 21:23:58
(UTC+00:00)

CZ-4 R/B - Pass Details

Date: 07 June 2020
Orbit: 681 x 753 km, 98.5° (Epoch: 09 July)

Event Time Altitude Azimuth Distance (km) Brightness Sun altitude
Rises 00:16:09 0° 13° (NNE) 3,101 8.8 -19.5°
Reaches altitude 10° 00:18:26 10° 12° (NNE) 2,169 7.6 -19.4°
Maximum altitude 00:23:10 80° 287° (WNW) 706 3.7 -19.3°
Enters shadow 00:24:49 40° 206° (SSW) 1,004 4.1 -19.3°
